BVX177 ENBR-ENGM

Flight info

Callsign BVX177
Flight time 0h 30m
Altitude 31000
Route GOKAB DCT ULVAN DCT ADOPI
Aircraft A319/M-SDE3FGHIRWY/LB1

Departure

Time 2026-05-04 17:53
Airport Bergen Airport, Flesland (ENBR)

Arrival

Time 2026-05-04 18:23
Airport Oslo-Gardermoen International Airport (ENGM)
Time Latitude Longitude Altitude Speed Heading
2026-05-04 17:32 60.28700 5.22924 173 ft 0 kts 80°
2026-05-04 17:46 60.28699 5.22910 173 ft 4 kts 80°
2026-05-04 17:46 60.28695 5.22857 173 ft 4 kts 80°
2026-05-04 17:46 60.28694 5.22840 173 ft 0 kts 80°
2026-05-04 17:49 60.28694 5.22842 173 ft 0 kts 74°
2026-05-04 17:49 60.28706 5.22845 173 ft 4 kts 358°
2026-05-04 17:50 60.28727 5.22765 172 ft 10 kts 272°
2026-05-04 17:50 60.28713 5.22569 168 ft 15 kts 261°
2026-05-04 17:50 60.28681 5.22376 165 ft 13 kts 260°
2026-05-04 17:50 60.28671 5.22256 164 ft 5 kts 260°
2026-05-04 17:51 60.28669 5.22237 163 ft 0 kts 260°
2026-05-04 17:51 60.28659 5.22126 162 ft 16 kts 259°
2026-05-04 17:52 60.28679 5.22039 162 ft 8 kts 349°
2026-05-04 17:52 60.28832 5.21987 162 ft 52 kts 350°
2026-05-04 17:52 60.29418 5.21790 154 ft 118 kts 351°
2026-05-04 17:52 60.30324 5.21481 601 ft 132 kts 346°
2026-05-04 17:53 60.31241 5.21163 1349 ft 135 kts 347°
2026-05-04 17:53 60.32213 5.20838 1927 ft 151 kts 348°
2026-05-04 17:53 60.33313 5.20465 2354 ft 174 kts 348°
2026-05-04 17:53 60.34592 5.20035 2870 ft 197 kts 349°
2026-05-04 17:54 60.36035 5.20376 3376 ft 229 kts 21°
2026-05-04 17:54 60.37239 5.22756 4058 ft 261 kts 60°
2026-05-04 17:54 60.37768 5.26351 5152 ft 272 kts 77°
2026-05-04 17:54 60.38016 5.30219 6096 ft 280 kts 83°
2026-05-04 17:55 60.38152 5.34173 7177 ft 285 kts 84°
2026-05-04 17:55 60.38273 5.38226 8174 ft 293 kts 84°
2026-05-04 17:55 60.38419 5.42412 9142 ft 303 kts 83°
2026-05-04 17:55 60.38598 5.46701 10043 ft 311 kts 83°
2026-05-04 17:56 60.38809 5.51212 10546 ft 335 kts 82°
2026-05-04 17:56 60.39050 5.55988 10874 ft 358 kts 82°
2026-05-04 17:56 60.39322 5.61167 11236 ft 380 kts 82°
2026-05-04 17:56 60.39607 5.66560 11809 ft 391 kts 82°
2026-05-04 17:57 60.39898 5.72087 12470 ft 399 kts 82°
2026-05-04 17:57 60.40190 5.77726 13173 ft 407 kts 82°
2026-05-04 17:57 60.40481 5.83482 13844 ft 415 kts 82°
2026-05-04 17:57 60.40767 5.89328 14460 ft 422 kts 82°
2026-05-04 17:58 60.41056 5.95293 15049 ft 430 kts 82°
2026-05-04 17:58 60.41352 6.01376 15646 ft 437 kts 82°
2026-05-04 17:58 60.41652 6.07539 16227 ft 445 kts 82°
2026-05-04 17:58 60.41955 6.13829 16795 ft 452 kts 82°
2026-05-04 17:59 60.42258 6.20206 17409 ft 459 kts 82°
2026-05-04 17:59 60.42561 6.26679 17997 ft 466 kts 83°
2026-05-04 17:59 60.43164 6.39953 19067 ft 479 kts 83°
2026-05-04 18:00 60.43283 6.46720 19608 ft 485 kts 91°
2026-05-04 18:00 60.43104 6.53588 20136 ft 491 kts 93°
2026-05-04 18:00 60.42914 6.60424 20657 ft 495 kts 93°
2026-05-04 18:00 60.42718 6.67425 21170 ft 500 kts 93°
2026-05-04 18:01 60.42519 6.74481 21669 ft 505 kts 93°
2026-05-04 18:01 60.42314 6.81597 22195 ft 510 kts 93°
2026-05-04 18:01 60.42105 6.88800 22632 ft 515 kts 93°
2026-05-04 18:02 60.41672 7.03395 23514 ft 524 kts 93°
2026-05-04 18:02 60.41442 7.10772 23895 ft 527 kts 94°
2026-05-04 18:02 60.41204 7.18193 24295 ft 530 kts 94°
2026-05-04 18:02 60.40961 7.25648 24726 ft 532 kts 94°
2026-05-04 18:03 60.40714 7.33136 25132 ft 535 kts 94°
2026-05-04 18:03 60.40464 7.40663 25549 ft 537 kts 94°
2026-05-04 18:03 60.40212 7.48216 25964 ft 538 kts 94°
2026-05-04 18:03 60.39954 7.55782 26409 ft 539 kts 94°
2026-05-04 18:04 60.39693 7.63354 26828 ft 541 kts 94°
2026-05-04 18:04 60.39426 7.70956 27216 ft 543 kts 94°
2026-05-04 18:04 60.38991 7.86211 26815 ft 545 kts 86°
2026-05-04 18:05 60.39270 7.93905 26287 ft 551 kts 84°
2026-05-04 18:05 60.39551 8.01659 25776 ft 555 kts 84°
2026-05-04 18:05 60.39814 8.09455 25278 ft 557 kts 85°
2026-05-04 18:05 60.40066 8.17262 24749 ft 555 kts 85°
2026-05-04 18:06 60.40557 8.32762 23907 ft 550 kts 85°
2026-05-04 18:06 60.40803 8.40474 23543 ft 548 kts 85°
2026-05-04 18:06 60.41046 8.48163 23164 ft 547 kts 85°
2026-05-04 18:07 60.41286 8.55812 22753 ft 544 kts 85°
2026-05-04 18:07 60.41517 8.63326 22346 ft 540 kts 85°
2026-05-04 18:07 60.41748 8.70983 21929 ft 537 kts 85°
2026-05-04 18:07 60.41967 8.78405 21525 ft 533 kts 85°
2026-05-04 18:08 60.42183 8.85866 21112 ft 529 kts 86°
2026-05-04 18:08 60.42392 8.93282 20677 ft 525 kts 86°
2026-05-04 18:08 60.42591 9.00629 20266 ft 521 kts 86°
2026-05-04 18:08 60.42781 9.07932 19861 ft 518 kts 86°
2026-05-04 18:09 60.43148 9.22395 19054 ft 511 kts 86°
2026-05-04 18:09 60.43513 9.36684 18359 ft 505 kts 86°
2026-05-04 18:10 60.43690 9.43755 17971 ft 501 kts 86°
2026-05-04 18:10 60.43861 9.50778 17494 ft 497 kts 87°
2026-05-04 18:10 60.44025 9.57733 17053 ft 491 kts 87°
2026-05-04 18:10 60.44178 9.64609 16621 ft 485 kts 87°
2026-05-04 18:11 60.44326 9.71402 16199 ft 480 kts 87°
2026-05-04 18:11 60.44468 9.78130 15765 ft 475 kts 87°
2026-05-04 18:11 60.44605 9.84761 15349 ft 468 kts 87°
2026-05-04 18:11 60.44738 9.91327 14941 ft 464 kts 87°
2026-05-04 18:12 60.44868 9.97803 14262 ft 458 kts 87°
2026-05-04 18:12 60.44995 10.04231 13486 ft 455 kts 87°
2026-05-04 18:12 60.45118 10.10611 12640 ft 451 kts 87°
2026-05-04 18:12 60.45236 10.16833 11817 ft 444 kts 88°
2026-05-04 18:13 60.45350 10.23033 11099 ft 436 kts 88°
2026-05-04 18:13 60.45457 10.29028 10912 ft 414 kts 88°
2026-05-04 18:13 60.45645 10.40089 10640 ft 373 kts 88°
2026-05-04 18:14 60.45731 10.45237 10513 ft 357 kts 88°
2026-05-04 18:14 60.45812 10.50168 10384 ft 342 kts 88°
2026-05-04 18:14 60.45887 10.54888 10183 ft 330 kts 88°
2026-05-04 18:15 60.46026 10.64010 9724 ft 320 kts 88°
2026-05-04 18:15 60.46155 10.73017 9077 ft 319 kts 88°
2026-05-04 18:15 60.46216 10.77526 8570 ft 321 kts 88°
2026-05-04 18:16 60.46276 10.81982 8193 ft 314 kts 88°
2026-05-04 18:16 60.46334 10.86374 7593 ft 311 kts 89°
2026-05-04 18:16 60.46390 10.90683 7057 ft 309 kts 89°
2026-05-04 18:17 60.46503 10.99256 6199 ft 295 kts 90°
2026-05-04 18:17 60.46551 11.03309 6060 ft 280 kts 92°
2026-05-04 18:17 60.45466 11.10363 5579 ft 255 kts 129°
2026-05-04 18:18 60.44291 11.13016 5093 ft 254 kts 142°
2026-05-04 18:18 60.43027 11.15469 4769 ft 249 kts 141°
2026-05-04 18:18 60.41795 11.17818 4571 ft 234 kts 148°
2026-05-04 18:18 60.40429 11.19151 4497 ft 207 kts 174°
2026-05-04 18:19 60.37805 11.18584 4070 ft 184 kts 202°
2026-05-04 18:19 60.36588 11.17873 3823 ft 181 kts 202°
2026-05-04 18:19 60.35377 11.17164 3573 ft 181 kts 203°
2026-05-04 18:20 60.34171 11.16459 3328 ft 180 kts 202°
2026-05-04 18:20 60.32966 11.15759 3079 ft 180 kts 202°
2026-05-04 18:20 60.31759 11.15056 2834 ft 181 kts 201°
2026-05-04 18:20 60.30551 11.14354 2585 ft 180 kts 202°
2026-05-04 18:21 60.29385 11.13680 2326 ft 168 kts 202°
2026-05-04 18:21 60.28309 11.13058 2103 ft 155 kts 203°
2026-05-04 18:21 60.27310 11.12480 1901 ft 145 kts 203°
2026-05-04 18:21 60.26385 11.11943 1711 ft 135 kts 203°
2026-05-04 18:22 60.25504 11.11431 1517 ft 130 kts 205°
2026-05-04 18:22 60.24638 11.10929 1340 ft 129 kts 201°
2026-05-04 18:22 60.23788 11.10435 1174 ft 125 kts 202°
2026-05-04 18:22 60.22950 11.09948 1004 ft 125 kts 202°
2026-05-04 18:23 60.22115 11.09468 832 ft 124 kts 201°
2026-05-04 18:23 60.21283 11.08982 698 ft 123 kts 200°
2026-05-04 18:23 60.20560 11.08562 678 ft 88 kts 196°
2026-05-04 18:23 60.20134 11.08316 676 ft 38 kts 195°
2026-05-04 18:24 60.19961 11.08299 674 ft 17 kts 161°
2026-05-04 18:24 60.19895 11.08427 675 ft 12 kts 108°
2026-05-04 18:24 60.19873 11.08581 678 ft 11 kts 106°
2026-05-04 18:24 60.19848 11.08753 676 ft 14 kts 106°
2026-05-04 18:25 60.19817 11.08969 680 ft 16 kts 106°
2026-05-04 18:25 60.19786 11.09186 683 ft 17 kts 106°
2026-05-04 18:25 60.19751 11.09431 682 ft 19 kts 106°
2026-05-04 18:25 60.19711 11.09703 683 ft 20 kts 109°
2026-05-04 18:26 60.19683 11.09885 685 ft 11 kts 105°
2026-05-04 18:26 60.19671 11.09969 685 ft 2 kts 106°
2026-05-04 18:26 60.19669 11.09982 685 ft 0 kts 106°